Location: Aalen
(48.8330°N, 10.1000°E)
Time: 04:24:15
(UTC+02:00)

Transit 2A - Pass Details

Date: 31 July 2021
Orbit: 594 x 964 km, 66.7° (Epoch: 27 September)

Event Time Altitude Azimuth Distance (km) Brightness Sun altitude
Rises 11:16:45 0° 296° (WNW) 2,963 8.7 49.7°
Reaches altitude 10° 11:21:01 10° 335° (NNW) 2,141 8.1 50.3°
Maximum altitude 11:22:14 11° 349° (N) 2,111 8.1 50.4°
Drops below altitude 10° 11:23:29 10° 4° (N) 2,197 8.3 50.6°
Sets 11:28:07 0° 41° (NE) 3,236 9.2 51.2°
